Estación de Sagrada Familia

Ultimos registro cada 15 minutos 36
Estación Fecha / Hora Temperatura Humedad Lluvia Velocidad Dirección Radiación Presion
36 Sagrada Familia 01-09-2026 08:45 11,4 93 0 0 117 264 1022,8
35 Sagrada Familia 01-09-2026 08:30 10,5 95 0 0 141 207 1022,9
34 Sagrada Familia 01-09-2026 08:15 9,5 96 0 0 163 158 1022,7
33 Sagrada Familia 01-09-2026 08:00 8,5 96 0 0 163 72 1022,5
32 Sagrada Familia 01-09-2026 07:45 7,7 94 0 0 163 67 1022,5
31 Sagrada Familia 01-09-2026 07:30 7,5 94 0 0 163 11 1022,4
30 Sagrada Familia 01-09-2026 07:15 7,7 93 0 0 163 7 1022,2
29 Sagrada Familia 01-09-2026 07:00 8 93 0 0 163 0 1022,1
28 Sagrada Familia 01-09-2026 06:45 8,3 93 0 0 163 0 1022
27 Sagrada Familia 01-09-2026 06:30 8,6 93 0 0 163 0 1022,3
26 Sagrada Familia 01-09-2026 06:15 8,8 93 0 0 163 0 1022
25 Sagrada Familia 01-09-2026 06:00 8,9 93 0 0 163 0 1021,9
24 Sagrada Familia 01-09-2026 05:45 8,9 93 0 0 163 0 1021,8
23 Sagrada Familia 01-09-2026 05:30 8,9 93 0 0 163 0 1021,7
22 Sagrada Familia 01-09-2026 05:15 9 93 0 0 163 0 1021,7
21 Sagrada Familia 01-09-2026 05:00 9,1 92 0 0 163 0 1021,8
20 Sagrada Familia 01-09-2026 04:45 9,2 92 0 0 163 0 1021,8
19 Sagrada Familia 01-09-2026 04:30 9,2 92 0 0 163 0 1021,7
18 Sagrada Familia 01-09-2026 04:15 9,3 92 0 0 163 0 1021,7
17 Sagrada Familia 01-09-2026 04:00 9,4 92 0 0 131 0 1021,8
16 Sagrada Familia 01-09-2026 03:45 9,6 92 0 0 48 0 1021,8
15 Sagrada Familia 01-09-2026 03:30 9,7 92 0 0 48 0 1021,9
14 Sagrada Familia 01-09-2026 03:15 9,7 92 0 0 48 0 1022
13 Sagrada Familia 01-09-2026 03:00 9,8 92 0 0 48 0 1022,1
12 Sagrada Familia 01-09-2026 02:45 9,8 92 0 0 48 0 1022,3
11 Sagrada Familia 01-09-2026 02:30 9,8 91 0 0,4 48 0 1022,3
10 Sagrada Familia 01-09-2026 02:15 9,8 91 0 0 163 0 1022,6
9 Sagrada Familia 01-09-2026 02:00 9,8 91 0 0 163 0 1022,8
8 Sagrada Familia 01-09-2026 01:45 10 90 0 0 163 0 1022,9
7 Sagrada Familia 01-09-2026 01:30 10,1 90 0 0 163 0 1023
6 Sagrada Familia 01-09-2026 01:15 10,2 89 0 0 163 0 1023
5 Sagrada Familia 01-09-2026 01:00 10,3 89 0 0 163 0 1022,9
4 Sagrada Familia 01-09-2026 00:45 10,4 89 0 0 163 0 1022,8
3 Sagrada Familia 01-09-2026 00:30 10,4 89 0 0 163 0 1022,9
2 Sagrada Familia 01-09-2026 00:15 10,4 89 0 0 163 0 1023,1
1 Sagrada Familia 01-09-2026 00:00 10,4 88 0 0 200 0 1023,2